Weather History for KLGU - December, 2012

Change the Weather History Date:

Wednesday, December 12, 2012

  Actual Average Record
Temperature  
Mean Temperature 38 °F -  
Max Temperature 46 °F 33 °F 60 °F (2014)
Min Temperature 30 °F 14 °F -5 °F (1985)
Degree Days  
Heating Degree Days 27    
Moisture  
Dew Point 25 °F    
Average Humidity 61    
Maximum Humidity 85    
Minimum Humidity 42    
Precipitation  
Precipitation 0.00 in - - ()
Sea Level Pressure  
Sea Level Pressure 29.73 in    
Wind  
Wind Speed 6 mph (South)    
Max Wind Speed 13 mph    
Max Gust Speed -    
Visibility 10 miles    
Events      
Averages and records for this station are not official NWS values.
T = Trace of Precipitation, MM = Missing Value Source: NWS Daily Summary

Daily Weather History Graph

Daily Weather History Graph

Search for Another Location

Airport or City:

Trip Planner

Search our weather history database for the weather conditions in past years. The results will help you decide how hot, cold, wet, or windy it might be!

Date:

Astronomy

Dec. 12, 2012 Rise Set
Actual Time 7:45 AM MST 4:56 PM MST
Civil Twilight 7:14 AM MST 5:28 PM MST
Nautical Twilight 6:39 AM MST 6:03 PM MST
Astronomical Twilight 6:05 AM MST 6:37 PM MST
Moon 6:54 AM MST (12/12) 4:38 PM MST (12/12)
Length of Visible Light 10h 14m
Length of Day
9h 10m
Waning Crescent, 0% of the Moon is Illuminated
Dec 12
Waning Crescent
Dec 13
New
Dec 19
First Quarter
Dec 28
Full
Jan 4
Last Quarter

Hourly Weather History & Observations

Time (MST) Temp. Windchill Dew Point Humidity Pressure Visibility Wind Dir Wind Speed Gust Speed Precip Events Conditions
12:51 AM 32.0 °F 26.4 °F 26.1 °F 79% 29.73 in 10.0 mi NNW 5.8 mph - N/A   Partly Cloudy
1:51 AM 34.0 °F 29.8 °F 25.0 °F 70% 29.68 in 10.0 mi NE 4.6 mph - N/A   Clear
2:51 AM 33.1 °F 27.7 °F 26.1 °F 75% 29.67 in 10.0 mi NE 5.8 mph - N/A   Clear
3:51 AM 36.0 °F - 25.0 °F 64% 29.65 in 10.0 mi Calm Calm - N/A   Clear
4:51 AM 37.9 °F 34.4 °F 24.1 °F 57% 29.63 in 10.0 mi Variable 4.6 mph - N/A   Clear
6:51 AM 42.1 °F 37.7 °F 21.9 °F 45% 29.63 in 10.0 mi Variable 6.9 mph - N/A   Clear
7:51 AM 41.0 °F 35.8 °F 21.9 °F 47% 29.66 in 10.0 mi South 8.1 mph - N/A   Clear
8:51 AM 43.0 °F 36.4 °F 24.1 °F 47% 29.68 in 10.0 mi SW 12.7 mph - N/A   Scattered Clouds
9:51 AM 43.0 °F 36.4 °F 24.1 °F 47% 29.73 in 10.0 mi SW 12.7 mph - N/A   Overcast
10:51 AM 44.1 °F 38.6 °F 25.0 °F 47% 29.77 in 10.0 mi SSW 10.4 mph - N/A   Overcast
11:51 AM 44.1 °F 39.0 °F 24.1 °F 45% 29.75 in 10.0 mi South 9.2 mph - N/A   Overcast
1:51 PM 46.0 °F 43.9 °F 24.1 °F 42% 29.75 in 10.0 mi South 4.6 mph - N/A   Overcast
2:51 PM 45.0 °F 42.6 °F 25.0 °F 46% 29.77 in 10.0 mi SSE 4.6 mph - N/A   Overcast
3:51 PM 44.1 °F 37.7 °F 25.0 °F 47% 29.78 in 10.0 mi South 12.7 mph - N/A   Overcast
5:51 PM 39.9 °F 35.8 °F 25.0 °F 55% 29.78 in 10.0 mi East 5.8 mph - N/A   Partly Cloudy
6:51 PM 35.1 °F - 25.0 °F 67% 29.78 in 10.0 mi Calm Calm - N/A   Partly Cloudy
7:51 PM 34.0 °F 31.0 °F 26.1 °F 73% 29.79 in 10.0 mi West 3.5 mph - N/A   Clear
8:51 PM 33.1 °F - 26.1 °F 75% 29.79 in 10.0 mi Calm Calm - N/A   Clear
9:51 PM 32.0 °F 27.5 °F 27.0 °F 82% 29.79 in 10.0 mi NW 4.6 mph - N/A   Clear
10:51 PM 30.9 °F - 27.0 °F 85% 29.80 in 10.0 mi Calm Calm - N/A   Clear
11:51 PM 30.9 °F - 27.0 °F 85% 29.81 in 10.0 mi Calm Calm - N/A   Clear